Regional Weather Roundup
Issued by NWS

Home | Current Version | Previous Version | Text Only | Print | Product List | Glossary On
Versions: 1 2 3 4 5 6 7 8 9 10 11 12 13 14 15 16 17 18 19 20 21 22 23 24 25 26 27 28 29 30 31 32 33 34 35 36 37 38 39 40 41 42 43 44 45 46 47 48 49 50
000
ASUS46 KLOX 281313
RWRCA

SOUTHERN CALIFORNIA WEATHER ROUNDUP
NATIONAL WEATHER SERVICE OXNARD CALIFORNIA
600 AM PDT THU MAY 28 2015

NOTE: "FAIR" INDICATES FEW OR NO CLOUDS BELOW 12,000 FEET WITH NO
SIGNIFICANT WEATHER AND/OR OBSTRUCTIONS TO VISIBILITY.

  -  STATIONS PRECEEDED BY AN ASTERISK (*) ARE NOT NWS OR FAA
     STATIONS AND ARE NOT SUBJECT TO NWS AND FAA QUALITY CONTROL.

CAZ041-042-087-281400-
LA AND ORANGE COUNTY COASTAL AREAS


CITY           SKY/WX    TMP DP  RH WIND       PRES   REMARKS
L.A. DOWNTOWN  CLOUDY    59  54  83 CALM      29.97R
L.A. AIRPORT   CLOUDY    58  55  90 SW3       29.98R
LONG BEACH     CLOUDY    61  54  77 CALM      29.97S

CITY           SKY/WX    TMP DP  RH WIND       PRES   REMARKS
AVALON           N/A     59 N/A N/A MISG        N/A
FULLERTON      CLOUDY    59  53  80 CALM      29.97R
HAWTHORNE      CLOUDY    61  54  77 S5        29.98R
*LOS ALAMITOS  CLOUDY    59  56  89 CALM      29.97R
*REDONDO BEACH   N/A     58  54  86 CALM      29.98R
SANTA ANA      CLOUDY    60  53  77 CALM      29.97R
STA MONICA APT CLOUDY    58  54  86 CALM      29.97S
*UCLA            N/A     55  52  88 N1        29.96R

$$

CAZ547-548-048-281400-
LA COUNTY VALLEYS AND INLAND EMPIRE


CITY           SKY/WX    TMP DP  RH WIND       PRES   REMARKS
BURBANK        CLEAR     55  51  86 S3        29.96R
VAN NUYS       CLEAR     56  51  84 E5        29.96R

CITY           SKY/WX    TMP DP  RH WIND       PRES   REMARKS
CORONA AIRPORT SUNNY     48  48 100 CALM      29.99R FOG
CHINO          PTCLDY    54  52  93 W3        29.99R FOG
MARCH AFB      CLOUDY    54  54 100 CALM      29.97R FOG
*NORTHRIDGE      N/A     54  50  87 NE1         N/A
ONTARIO        PTCLDY    54  52  93 SW5       29.97R FOG
*PASADENA        N/A     55  54  94 CALM        N/A
RIVERSIDE      MOCLDY    55  52  89 CALM      29.98R
SAN BERNARDINO NOT AVBL
*WHITEMAN AP   NOT AVBL
*WOODLAND HILL   N/A     52  48  87 SE1         N/A

$$

CAZ054-055-281400-
LA AND SAN BERNARDINO COUNTY MOUNTAINS


CITY           SKY/WX    TMP DP  RH WIND       PRES   REMARKS
*BIG BEAR AIRP SUNNY     32  23  69 CALM      30.20R
SANDBERG       CLEAR     60  38  43 N24       30.06R

$$

CAZ028-029-059-060-099-281400-
ANTELOPE VALLEY AND SURROUNDING AREAS


CITY           SKY/WX    TMP DP  RH WIND       PRES   REMARKS
LANCASTER      CLEAR     59  38  45 W8        29.96R
PALMDALE       CLEAR     57  40  52 S10       29.97S

CITY           SKY/WX    TMP DP  RH WIND       PRES   REMARKS
29 PALMS       CLEAR     66  36  32 W7        30.01R
BARSTOW/DAGGET CLEAR     65  39  38 W12       29.94R
BISHOP         CLEAR     52  35  52 N6        30.04R
CHINA LAKE     CLEAR     58  38  47 S5        29.92R
EDWARDS AFB    PTCLDY    59  40  49 S5        29.94R
MOJAVE         FAIR      66  39  37 CALM      29.97R
NEEDLES        NOT AVBL
VICTORVILLE    CLEAR     57  39  51 CALM      30.00R

$$

CAZ039-040-281400-
VENTURA AND SANTA BARBARA COUNTY COAST


CITY           SKY/WX    TMP DP  RH WIND       PRES   REMARKS
CAMARILLO      MOCLDY    54  50  86 CALM      29.98R
OXNARD AIRPORT CLOUDY    57  51  80 CALM      29.97R
*POINT MUGU    CLOUDY    55  51  86 CALM      29.98R
SBA APT/GOLETA MOCLDY    53  49  86 NE3       29.96R
*SANTA BARBARA   N/A     56  51  83 CALM      30.05R
*VENTURA         N/A     54  51  90 CALM      29.59R

$$

CAZ044-045-281400-
VENTURA COUNTY VALLEYS


CITY           SKY/WX    TMP DP  RH WIND       PRES   REMARKS
*SIMI VALLEY     N/A     50  48  91 CALM      29.93R
*OJAI            N/A     45  43  91 CALM      29.94R
*FILLMORE        N/A     49  45  86 W6        29.87R

$$

CAZ053-281400-
VENTURA COUNTY MOUNTAINS


CITY           SKY/WX    TMP DP  RH WIND       PRES   REMARKS

$$

CAZ034-035-036-281400-
CENTRAL COAST AND SANTA YNEZ VALLEY


CITY           SKY/WX    TMP DP  RH WIND       PRES   REMARKS
SAN LUIS OBISP CLOUDY    53  50  89 NW10      29.99S
SANTA MARIA    CLOUDY    53  52  96 W5        30.01R FOG

CITY           SKY/WX    TMP DP  RH WIND       PRES   REMARKS
*LOMPOC        CLOUDY    54  46  76 NW5       30.01R
*PISMO BEACH     N/A     53  51  91 CALM      30.01R
*SANTA YNEZ    CLOUDY    50  48  93 CALM      30.00R FOG

$$

CAZ037-038-051-281400-
SAN LUIS OBISPO COUNTY INTERIOR AND CUYAMA VALLEY


CITY           SKY/WX    TMP DP  RH WIND       PRES   REMARKS
*CUYAMA          N/A     52  44  73 E3        29.92R
PASO ROBLES    CLOUDY    52  49  89 N7        30.01R

$$

CAZ032-033-061-281400-
SOUTHERN DESERTS


CITY           SKY/WX    TMP DP  RH WIND       PRES   REMARKS
BLYTHE         CLEAR     69  39  33 CALM      29.85R
IMPERIAL       CLEAR     68  58  70 SE8       29.83R
PALM SPRINGS   CLEAR     68  53  58 CALM      29.88R
THERMAL        CLEAR     62  50  64 N3        29.83R

$$

ELSEWHERE ACROSS THE WESTERN UNITED STATES AND MEXICO


CITY           SKY/WX    TMP DP  RH WIND       PRES   REMARKS
DENVER, CO     PTSUNNY   56  53  90 W9        30.08S
GRAND CANYON,  CLEAR     37  32  82 CALM      30.20R
HONOLULU, HI   MOCLDY    73  64  73 NW6       29.94S
KAHULUI, MAUI  CLOUDY    75  66  73 N7        29.94F
LAKE TAHOE, CA CLEAR     34  29  82 S3        30.18S
LAS VEGAS, NV  CLEAR     72  36  26 SW6       29.89R
MAMMOTH LAKES, FAIR      36  23  60 N3        30.22R
MEXICO CITY, M PTSUNNY   57  52  82 E7        30.37
PHOENIX, AZ    CLEAR     71  38  29 SE5       29.90R
PORTLAND, OR   PTCLDY    54  52  93 NW5       30.06R
RENO, NV       PTCLDY    53  35  50 W5        30.11R
SALT LAKE CITY CLOUDY    53  48  83 N10       30.13R
SAN DIEGO, CA  CLOUDY    62  55  77 NW3       29.99R
SAN FRANCISCO, CLOUDY    53  49  86 W14       30.04R
SAN JOSE, CA   CLOUDY    56  50  80 NW6       30.04R
SEATTLE, WA    CLEAR     55  52  89 CALM      30.08R
TIJUANA, MEX   CLOUDY    59  52  77 NW9       29.99

$$

STATION/POSITION TIME  TEMP    WIND        PRES    VSBY  WAVE
                       AIR SEA DIR/SP/G                  HT/PER
                 (UTC) (F)     (DEG/KT/KT) (MB)    (MI)  (FT/S)
POINT ARGUELLO B NOT AVBL
WEST SANTA BARBA 1250   53 54  320/ 19/ 23 1014.4R         5/15
POINT CONCEPTION NOT AVBL
EAST SANTA BARBA 1300   57 59  350/  4/  6 1015.0R
SANTA MONICA BAY 1250   57 62  280/  2/  2 1015.0R         4/16



USA.gov is the U.S. government's official web portal to all federal, state and local government web resources and services.